Overview Statistics Trail Chart Weather Telemetry Raw packets
 

This is the latest recevied weather packets stored in our database for station/object WC4PEM-4. If no packets are shown the sender has not sent any weather packets the latest 10 day(s).

<< 137 138 139 140 141 142 143 >>
Time Temp. Humidity Pressure Rain* Wind** Luminosity Snow
1787862691 28.33° C 73% 1015.9 hPa 0 mm - - -
1787862391 28.33° C 72% 1015.9 hPa 0 mm - - -
1787862091 28.33° C 73% 1015.7 hPa 0 mm - - -
1787861791 27.78° C 77% 1015.8 hPa 0 mm - - -
1787861491 27.22° C 77% 1015.8 hPa 0 mm - - -
1787861191 27.22° C 77% 1016 hPa 0 mm - - -
1787860891 26.67° C 77% 1016 hPa 0 mm - - -
1787860591 26.67° C 78% 1016.2 hPa 0 mm - - -
1787860291 27.22° C 76% 1016.3 hPa 0 mm - - -
1787859991 27.78° C 74% 1016.5 hPa 0 mm - - -
1787859691 28.33° C 73% 1016.6 hPa 0 mm - - -
1787859391 28.33° C 71% 1016.1 hPa 0 mm - - -
1787859174 28.33° C 71% 1015.6 hPa 0 mm - - -
1787859098 28.33° C 71% 1015.6 hPa 0 mm - - -
1787858864 28.89° C 71% 1015.6 hPa 0 mm - - -
1787858791 28.89° C 71% 1015.6 hPa 0 mm - - -
1787858491 29.44° C 68% 1015.7 hPa 0 mm - - -
1787858256 30° C 69% 1015.4 hPa 0 mm - - -
1787858191 30° C 69% 1015.4 hPa 0 mm - - -
1787857974 29.44° C 67% 1015.5 hPa 0 mm - - -
1787857891 29.44° C 67% 1015.5 hPa 0 mm - - -
1787857591 30° C 65% 1015.3 hPa 0 mm - - -
1787857334 32.22° C 57% 1015.4 hPa 0 mm - - -
1787857291 32.22° C 57% 1015.4 hPa 0 mm - - -
1787856991 32.78° C 57% 1015.2 hPa 0 mm - - -

* Rain latest hour (hover to see other rain measurements)
** Current wind speed in m/s (hover to see current wind gust speed)